Sultana — WDA4793 — position and weather

sailwx.info

Track history (hours):
 
Tides and Currents Weather Stations Pressure Air Temp Water Temp Dewpoint Dewpoint Depression Visibility Wind Speed Wind Dir Waves Ship Positions

Sultana

Owner: Sultana Projects, Inc., CHESTERTOWN, MD. More information available from US FCC via Universal Licensing System and Coast Guard Vessel Documentation Center.

Last reported at 2019-Oct-18 12:43 UTC. Time now 2019-Oct-23 00:59 UTC.
Position N 38°50' W 076°24'.

Length 18 m.

Type: Sailing vessel. MMSI: 366813170.

Date/timePositionNaut miles runAvg speedWind from/ knotsBaromVisibWave heightAir tempDewpointWater temp
2019-Oct-18 12:43N 38°50' W 076°24'2 7.0
2019-Oct-18 12:29N 38°52' W 076°24'3 6.9
2019-Oct-18 12:00N 38°55' W 076°23'3 6.7
2019-Oct-18 11:30N 38°58' W 076°23'1 2.1
2019-Oct-18 11:00N 38°59' W 076°23'0 0.2
2019-Oct-18 10:30N 38°59' W 076°23'2 4.7
2019-Oct-18 09:59N 39°02' W 076°23'13 5.4
2019-Oct-18 07:41N 39°12' W 076°31'1 6.5
2019-Oct-18 07:30N 39°13' W 076°32'3 6.1
2019-Oct-18 07:00N 39°16' W 076°34'1 0.2
2019-Oct-17 23:57N 39°17' W 076°35'0 0.0
2019-Oct-17 20:24N 39°17' W 076°35'0 0.0
2019-Oct-17 17:33N 39°17' W 076°35'0 0.0
2019-Oct-17 15:57N 39°17' W 076°35'0 0.0
2019-Oct-16 15:48N 39°17' W 076°35'1 1.9
2019-Oct-16 15:18N 39°17' W 076°36'1 1.6
2019-Oct-16 14:52N 39°17' W 076°36'1 2.2
2019-Oct-16 14:16N 39°15' W 076°35'0 1.9
2019-Oct-16 14:00N 39°16' W 076°34'1 0.1
2019-Oct-15 20:11N 39°17' W 076°35'1 0.4
2019-Oct-15 18:46N 39°17' W 076°36'1 4.1
2019-Oct-15 18:30N 39°16' W 076°35'1 1.3
2019-Oct-15 17:59N 39°15' W 076°35'1 1.7
2019-Oct-15 17:30N 39°16' W 076°34'1 0.6
2019-Oct-15 15:42N 39°17' W 076°36'1 4.6
2019-Oct-15 15:30N 39°16' W 076°35'1 0.6
2019-Oct-15 14:12N 39°15' W 076°34'0 1.4
2019-Oct-15 14:00N 39°16' W 076°34'1 2.1
2019-Oct-15 13:31N 39°17' W 076°35'0 0.0
2019-Oct-14 20:00N 39°17' W 076°35'2 1.7
2019-Oct-14 19:06N 39°15' W 076°35'0 1.9
2019-Oct-14 19:00N 39°15' W 076°35'1 2.2
2019-Oct-14 18:30N 39°16' W 076°35'1 0.2
2019-Oct-14 15:24N 39°17' W 076°36'1 2.0
2019-Oct-14 14:38N 39°15' W 076°35'0 3.0
2019-Oct-14 14:30N 39°16' W 076°34'1 0.1
2019-Oct-14 00:13N 39°17' W 076°36'0 0.0
2019-Oct-13 22:13N 39°17' W 076°36'0 0.0
2019-Oct-13 19:43N 39°17' W 076°36'0 0.0
2019-Oct-13 05:37N 39°17' W 076°36'0 0.0
2019-Oct-13 03:31N 39°17' W 076°36'0 0.0
2019-Oct-12 22:42N 39°17' W 076°36'0 0.1
2019-Oct-12 21:34N 39°17' W 076°36'0 3.3
2019-Oct-12 21:30N 39°17' W 076°35'2 4.4
2019-Oct-12 21:00N 39°15' W 076°33'10 6.0
2019-Oct-12 19:17N 39°08' W 076°24'2 6.3
2019-Oct-12 19:00N 39°06' W 076°24'3 6.9
2019-Oct-12 18:30N 39°03' W 076°23'3 6.7
2019-Oct-12 18:00N 38°59' W 076°23'3 6.7
2019-Oct-12 17:30N 38°56' W 076°24'  
Track history (hours):
 
Tides and Currents Weather Stations Pressure Air Temp Water Temp Dewpoint Dewpoint Depression Visibility Wind Speed Wind Dir Waves Ship Positions

Sultana

Owner: Sultana Projects, Inc., CHESTERTOWN, MD. More information available from US FCC via Universal Licensing System and Coast Guard Vessel Documentation Center.

Last reported at 2019-Oct-18 12:43 UTC. Time now 2019-Oct-23 00:59 UTC.
Position N 38°50' W 076°24'.

Length 18 m.

Type: Sailing vessel. MMSI: 366813170.

Date/timePositionNaut miles runAvg speedWind from/ knotsBaromVisibWave heightAir tempDewpointWater temp
2019-Oct-18 12:43N 38°50' W 076°24'2 7.0
2019-Oct-18 12:29N 38°52' W 076°24'3 6.9
2019-Oct-18 12:00N 38°55' W 076°23'3 6.7
2019-Oct-18 11:30N 38°58' W 076°23'1 2.1
2019-Oct-18 11:00N 38°59' W 076°23'0 0.2
2019-Oct-18 10:30N 38°59' W 076°23'2 4.7
2019-Oct-18 09:59N 39°02' W 076°23'13 5.4
2019-Oct-18 07:41N 39°12' W 076°31'1 6.5
2019-Oct-18 07:30N 39°13' W 076°32'3 6.1
2019-Oct-18 07:00N 39°16' W 076°34'1 0.2
2019-Oct-17 23:57N 39°17' W 076°35'0 0.0
2019-Oct-17 20:24N 39°17' W 076°35'0 0.0
2019-Oct-17 17:33N 39°17' W 076°35'0 0.0
2019-Oct-17 15:57N 39°17' W 076°35'0 0.0
2019-Oct-16 15:48N 39°17' W 076°35'1 1.9
2019-Oct-16 15:18N 39°17' W 076°36'1 1.6
2019-Oct-16 14:52N 39°17' W 076°36'1 2.2
2019-Oct-16 14:16N 39°15' W 076°35'0 1.9
2019-Oct-16 14:00N 39°16' W 076°34'1 0.1
2019-Oct-15 20:11N 39°17' W 076°35'1 0.4
2019-Oct-15 18:46N 39°17' W 076°36'1 4.1
2019-Oct-15 18:30N 39°16' W 076°35'1 1.3
2019-Oct-15 17:59N 39°15' W 076°35'1 1.7
2019-Oct-15 17:30N 39°16' W 076°34'1 0.6
2019-Oct-15 15:42N 39°17' W 076°36'1 4.6
2019-Oct-15 15:30N 39°16' W 076°35'1 0.6
2019-Oct-15 14:12N 39°15' W 076°34'0 1.4
2019-Oct-15 14:00N 39°16' W 076°34'1 2.1
2019-Oct-15 13:31N 39°17' W 076°35'0 0.0
2019-Oct-14 20:00N 39°17' W 076°35'2 1.7
2019-Oct-14 19:06N 39°15' W 076°35'0 1.9
2019-Oct-14 19:00N 39°15' W 076°35'1 2.2
2019-Oct-14 18:30N 39°16' W 076°35'1 0.2
2019-Oct-14 15:24N 39°17' W 076°36'1 2.0
2019-Oct-14 14:38N 39°15' W 076°35'0 3.0
2019-Oct-14 14:30N 39°16' W 076°34'1 0.1
2019-Oct-14 00:13N 39°17' W 076°36'0 0.0
2019-Oct-13 22:13N 39°17' W 076°36'0 0.0
2019-Oct-13 19:43N 39°17' W 076°36'0 0.0
2019-Oct-13 05:37N 39°17' W 076°36'0 0.0
2019-Oct-13 03:31N 39°17' W 076°36'0 0.0
2019-Oct-12 22:42N 39°17' W 076°36'0 0.1
2019-Oct-12 21:34N 39°17' W 076°36'0 3.3
2019-Oct-12 21:30N 39°17' W 076°35'2 4.4
2019-Oct-12 21:00N 39°15' W 076°33'10 6.0
2019-Oct-12 19:17N 39°08' W 076°24'2 6.3
2019-Oct-12 19:00N 39°06' W 076°24'3 6.9
2019-Oct-12 18:30N 39°03' W 076°23'3 6.7
2019-Oct-12 18:00N 38°59' W 076°23'3 6.7
2019-Oct-12 17:30N 38°56' W 076°24'  

Dump ship's entire track history